Home > Weather > Kenora > Past weeks

Flag for Canada Weather for the Past 2 Weeks in Kenora, Ontario, Canada

Now
-2 °F

Passing clouds.


Feels Like: -19 °F
Forecast: -3 / 14 °F
Wind: 10 mph from Southeast

Location: Kenora

Current Time: Feb 13, 2016 at 7:49:56 PM

Latest Report: Feb 13, 2016 at 7:00 PM


Visibility: 15 mi

Pressure: 30.40 "Hg

Humidity: 65%

Dew point: -11 °F

Location of KenoraLocation

Historic Weather in Kenora — Graph

°F

Kenora Temperature Yesterday

Maximum temperature yesterday: -6 °F (at 12:00 AM)
Minimum temperature yesterday: -18 °F (at 7:00 AM)
Average temperature yesterday: -12 °F

High & Low Weather Summary for the Past Weeks

 TemperatureHumidityPressure
High34 °F (Jan 30, 11:00 AM)100% (Jan 29, 7:00 PM)30.70 "Hg (Jan 29, 7:00 PM)
Low-22 °F (Feb 13, 8:00 AM)50% (Feb 13, 2:00 PM)29.19 "Hg (Jan 30, 2:00 AM)
Average8 °F80%30.06 "Hg
* Reported Jan 29 7:00 PM — Feb 13 7:00 PM, Kenora, Weather by CustomWeather, © 2016

Note: Actual official high and low records may vary slightly from our data, if they occured in-between our weather recording intervals... More about our weather records

Advertising

Kenora Weather History for the Previous 24 Hours

 ConditionsComfort  
Time TempWeatherWind HumidityBarometerVisibility
7:00 PM
Sat, Feb 13
-2 °FPassing clouds.10 mph65%30.40 "Hg15 mi
6:00 PM0 °FPassing clouds.7 mph54%30.41 "Hg15 mi
5:00 PM1 °FPassing clouds.9 mph55%30.43 "Hg15 mi
4:00 PM3 °FPartly sunny.7 mph50%30.47 "Hg15 mi
3:00 PM1 °FPartly sunny.5 mph50%30.50 "Hg15 mi
2:00 PM0 °FPartly sunny.6 mph50%30.54 "Hg15 mi
1:00 PM-4 °FScattered clouds.10 mph54%30.57 "Hg15 mi
12:00 PM-6 °FScattered clouds.7 mph59%30.60 "Hg15 mi
11:00 AM-9 °FPassing clouds.7 mph64%30.63 "Hg15 mi
10:00 AM-15 °FPassing clouds.6 mph76%30.64 "Hg15 mi
9:00 AM-20 °FScattered clouds.5 mph75%30.66 "Hg15 mi
8:00 AM-22 °FScattered clouds.2 mph83%30.66 "Hg15 mi
7:00 AM-20 °FPassing clouds.5 mph75%30.67 "Hg15 mi
6:00 AM-18 °FClear.2 mph75%30.66 "Hg15 mi
5:00 AM-18 °FClear.6 mph75%30.66 "Hg15 mi
4:00 AM-18 °FClear.2 mph75%30.65 "Hg15 mi
3:00 AM-17 °FClear.6 mph76%30.68 "Hg15 mi
2:00 AM-17 °FClear.8 mph69%30.70 "Hg15 mi
1:00 AM-15 °FClear.12 mph69%30.68 "Hg15 mi
12:00 AM-17 °FClear.9 mph76%30.68 "Hg15 mi
11:00 PM
Fri, Feb 12
-15 °FClear.10 mph69%30.68 "Hg15 mi
10:00 PM-15 °FClear.9 mph69%30.68 "Hg15 mi
9:00 PM-15 °FClear.8 mph69%30.68 "Hg15 mi
8:00 PM-13 °FClear.9 mph69%30.68 "Hg15 mi
7:00 PM-11 °FClear.9 mph63%30.68 "Hg15 mi
Weather by CustomWeather, © 2016

See weather overviewHow to use our weather pages